timestamp,wind_dir_avg,wind_spd_avg,wind_spd_max_dir,wind_spd_gust,battery_voltage,lat,long
2021-03-21 00:04:01+00:00,282.0,7.08,281.0,7.76,12.57,47.59359,-54.27349
2021-03-21 00:14:01+00:00,287.0,7.01,293.0,7.98,12.49,47.59359,-54.27349
2021-03-21 00:24:01+00:00,287.0,6.25,290.0,7.24,12.49,47.59359,-54.27349
2021-03-21 00:34:01+00:00,282.0,7.64,282.0,8.58,12.49,47.59359,-54.27349
2021-03-21 00:44:01+00:00,295.0,6.27,296.0,7.14,12.49,47.59359,-54.27349
2021-03-21 00:54:01+00:00,294.0,5.99,293.0,7.2,12.49,47.59359,-54.27349
2021-03-21 01:04:01+00:00,292.0,8.04,290.0,9.21,12.49,47.59359,-54.27349
2021-03-21 01:14:01+00:00,297.0,8.16,304.0,10.13,12.41,47.59359,-54.27349
2021-03-21 01:24:01+00:00,298.0,8.05,302.0,9.59,12.41,47.59359,-54.27349
2021-03-21 01:34:01+00:00,300.0,7.26,302.0,8.49,12.41,47.59359,-54.27349
2021-03-21 01:44:01+00:00,301.0,6.76,292.0,8.41,12.41,47.59359,-54.27349
2021-03-21 01:54:01+00:00,302.0,8.14,289.0,9.5,12.41,47.59359,-54.27349
2021-03-21 02:04:01+00:00,299.0,8.67,303.0,9.76,12.41,47.59359,-54.27349
2021-03-21 02:14:01+00:00,288.0,7.5,285.0,9.04,12.41,47.59359,-54.27349
2021-03-21 02:24:01+00:00,295.0,8.9,288.0,13.14,12.41,47.59359,-54.27349
2021-03-21 02:34:01+00:00,291.0,9.1,288.0,13.18,12.41,47.59359,-54.27349
2021-03-21 02:44:01+00:00,294.0,8.69,292.0,10.29,12.41,47.59359,-54.27349
2021-03-21 02:54:01+00:00,291.0,8.72,291.0,10.63,12.41,47.59359,-54.27349
2021-03-21 03:04:01+00:00,294.0,8.41,300.0,9.84,12.41,47.59359,-54.27349
2021-03-21 03:14:01+00:00,306.0,4.92,293.0,8.03,12.41,47.59359,-54.27349
2021-03-21 03:24:01+00:00,298.0,7.94,296.0,9.99,12.41,47.59359,-54.27349
2021-03-21 03:34:01+00:00,294.0,7.52,298.0,9.24,12.41,47.59359,-54.27349
2021-03-21 03:44:01+00:00,317.0,4.86,296.0,7.99,12.41,47.59359,-54.27349
2021-03-21 03:54:01+00:00,302.0,6.92,306.0,9.13,12.41,47.59359,-54.27349
2021-03-21 04:04:01+00:00,290.0,6.22,295.0,8.11,12.41,47.59359,-54.27349
2021-03-21 04:14:01+00:00,309.0,3.41,288.0,7.16,12.41,47.59359,-54.27349
2021-03-21 04:24:01+00:00,318.0,3.98,294.0,7.95,12.41,47.59359,-54.27349
2021-03-21 04:34:01+00:00,314.0,5.69,313.0,10.03,12.41,47.59359,-54.27349
2021-03-21 04:44:01+00:00,310.0,5.57,298.0,8.62,12.41,47.59359,-54.27349
2021-03-21 04:54:01+00:00,316.0,3.57,296.0,4.58,12.41,47.59359,-54.27349
2021-03-21 05:04:01+00:00,319.0,3.43,288.0,5.16,12.41,47.59359,-54.27349
2021-03-21 05:14:01+00:00,300.0,4.02,299.0,4.91,12.33,47.59359,-54.27349
2021-03-21 05:24:01+00:00,296.0,3.9,293.0,4.92,12.33,47.59359,-54.27349
2021-03-21 05:34:01+00:00,291.0,4.18,299.0,5.3,12.33,47.59359,-54.27349
2021-03-21 05:44:01+00:00,289.0,4.35,295.0,5.27,12.33,47.59359,-54.27349
2021-03-21 05:54:01+00:00,277.0,4.18,281.0,4.92,12.33,47.59359,-54.27349
2021-03-21 06:04:01+00:00,299.0,2.98,295.0,5.27,12.33,47.59359,-54.27349
2021-03-21 06:14:01+00:00,291.0,3.15,287.0,5.34,12.33,47.59359,-54.27349
2021-03-21 06:24:01+00:00,262.0,2.4,271.0,5.47,12.33,47.59359,-54.27349
2021-03-21 06:34:01+00:00,219.0,3.12,238.0,4.69,12.33,47.59359,-54.27349
2021-03-21 06:44:01+00:00,246.0,3.13,267.0,4.93,12.33,47.59359,-54.27349
2021-03-21 06:54:01+00:00,249.0,6.47,254.0,8.61,12.33,47.59359,-54.27349
2021-03-21 07:04:01+00:00,233.0,3.19,248.0,5.55,12.33,47.59359,-54.27349
2021-03-21 07:14:01+00:00,233.0,2.58,248.0,5.23,12.33,47.59359,-54.27349
2021-03-21 07:24:01+00:00,259.0,4.95,259.0,5.56,12.33,47.59359,-54.27349
2021-03-21 07:34:01+00:00,264.0,5.25,264.0,6.12,12.33,47.59359,-54.27349
2021-03-21 07:44:01+00:00,275.0,4.97,281.0,5.66,12.33,47.59359,-54.27349
2021-03-21 07:54:01+00:00,282.0,4.99,286.0,5.85,12.33,47.59359,-54.27349
2021-03-21 08:04:01+00:00,288.0,5.3,280.0,6.45,12.33,47.59359,-54.27349
2021-03-21 08:14:01+00:00,271.0,7.33,272.0,7.83,12.25,47.59359,-54.27349
2021-03-21 08:24:01+00:00,262.0,6.98,261.0,7.74,12.25,47.59359,-54.27349
2021-03-21 08:34:01+00:00,247.0,7.01,255.0,8.7,12.25,47.59359,-54.27349
2021-03-21 08:44:01+00:00,244.0,6.55,249.0,8.26,12.25,47.59359,-54.27349
2021-03-21 08:54:01+00:00,248.0,7.2,252.0,8.36,12.25,47.59359,-54.27349
2021-03-21 09:04:01+00:00,249.0,6.82,252.0,8.22,12.25,47.59359,-54.27349
2021-03-21 09:14:01+00:00,251.0,7.92,252.0,8.74,12.25,47.59359,-54.27349
2021-03-21 09:24:01+00:00,255.0,7.5,266.0,8.81,12.25,47.59359,-54.27349
2021-03-21 09:34:01+00:00,254.0,7.73,249.0,8.45,12.25,47.59359,-54.27349
2021-03-21 09:44:01+00:00,247.0,7.39,245.0,8.1,12.25,47.59359,-54.27349
2021-03-21 09:54:01+00:00,252.0,7.62,251.0,8.62,12.25,47.59359,-54.27349
2021-03-21 10:04:01+00:00,254.0,7.7,261.0,8.74,12.25,47.59359,-54.27349
2021-03-21 10:14:01+00:00,260.0,7.02,255.0,8.21,12.33,47.59359,-54.27349
2021-03-21 10:24:01+00:00,249.0,8.3,251.0,9.12,12.33,47.59359,-54.27349
2021-03-21 10:34:01+00:00,250.0,7.26,249.0,7.96,12.33,47.59359,-54.27349
2021-03-21 10:44:01+00:00,267.0,6.96,269.0,7.76,12.33,47.59359,-54.27349
2021-03-21 10:54:01+00:00,263.0,7.66,258.0,8.52,12.33,47.59359,-54.27349
2021-03-21 11:04:01+00:00,261.0,7.03,260.0,7.76,12.33,47.59359,-54.27349
2021-03-21 11:14:01+00:00,272.0,7.29,277.0,8.19,13.92,47.59359,-54.27349
2021-03-21 11:24:01+00:00,272.0,6.63,271.0,7.3,13.92,47.59359,-54.27349
2021-03-21 11:34:01+00:00,266.0,6.12,263.0,6.96,13.92,47.59359,-54.27349
2021-03-21 11:44:01+00:00,268.0,6.56,266.0,7.93,13.92,47.59359,-54.27349
2021-03-21 11:54:01+00:00,274.0,6.66,274.0,7.13,13.92,47.59359,-54.27349
2021-03-21 12:04:01+00:00,275.0,6.39,274.0,7.56,13.92,47.59359,-54.27349
2021-03-21 12:14:01+00:00,269.0,5.26,269.0,6.83,14.24,47.59359,-54.27349
2021-03-21 12:24:01+00:00,265.0,5.27,270.0,6.38,14.24,47.59359,-54.27349
2021-03-21 12:34:01+00:00,253.0,6.37,252.0,7.4,14.24,47.59359,-54.27349
2021-03-21 12:44:01+00:00,266.0,4.76,266.0,5.72,14.24,47.59359,-54.27349
2021-03-21 12:54:01+00:00,250.0,5.95,252.0,7.4,14.24,47.59359,-54.27349
2021-03-21 13:04:01+00:00,255.0,6.37,268.0,7.6,14.24,47.59359,-54.27349
2021-03-21 14:14:01+00:00,279.0,5.07,266.0,6.38,14.32,47.59359,-54.27349
2021-03-21 14:24:01+00:00,257.0,5.17,262.0,6.35,14.32,47.59359,-54.27349
2021-03-21 14:34:01+00:00,260.0,6.14,270.0,7.21,14.32,47.59359,-54.27349
2021-03-21 14:44:01+00:00,271.0,7.61,272.0,8.55,14.32,47.59359,-54.27349
2021-03-21 14:54:01+00:00,277.0,6.89,276.0,7.57,14.32,47.59359,-54.27349
2021-03-21 15:04:01+00:00,278.0,5.07,284.0,6.47,14.32,47.59359,-54.27349
2021-03-21 15:14:01+00:00,266.0,7.81,263.0,8.83,13.68,47.59359,-54.27349
2021-03-21 15:24:01+00:00,261.0,5.83,257.0,6.44,13.68,47.59359,-54.27349
2021-03-21 15:34:01+00:00,263.0,6.82,264.0,8.15,13.68,47.59359,-54.27349
2021-03-21 15:44:01+00:00,268.0,5.36,265.0,6.55,13.68,47.59359,-54.27349
2021-03-21 15:54:01+00:00,261.0,7.07,268.0,7.8,13.68,47.59359,-54.27349
2021-03-21 16:04:01+00:00,267.0,6.94,266.0,8.47,13.68,47.59359,-54.27349
2021-03-21 17:14:01+00:00,255.0,6.76,255.0,7.83,13.68,47.59359,-54.27349
2021-03-21 17:24:01+00:00,261.0,8.08,261.0,9.56,13.68,47.59359,-54.27349
2021-03-21 17:34:01+00:00,259.0,6.8,258.0,7.97,13.68,47.59359,-54.27349
2021-03-21 17:44:01+00:00,262.0,6.78,262.0,7.83,13.68,47.59359,-54.27349
2021-03-21 17:54:01+00:00,263.0,6.75,260.0,7.67,13.68,47.59359,-54.27349
2021-03-21 18:04:01+00:00,257.0,4.98,259.0,6.1,13.68,47.59359,-54.27349
2021-03-21 18:14:01+00:00,259.0,4.64,264.0,6.77,14.24,47.59359,-54.27349
2021-03-21 18:24:01+00:00,249.0,6.13,254.0,7.39,14.24,47.59359,-54.27349
2021-03-21 18:34:01+00:00,248.0,7.97,251.0,9.6,14.24,47.59359,-54.27349
2021-03-21 18:44:01+00:00,248.0,9.23,249.0,10.44,14.24,47.59359,-54.27349
2021-03-21 18:54:01+00:00,249.0,8.25,250.0,9.51,14.24,47.59359,-54.27349
2021-03-21 19:04:01+00:00,246.0,7.97,247.0,9.09,14.24,47.59359,-54.27349
2021-03-21 19:14:01+00:00,249.0,8.98,246.0,10.44,13.84,47.59359,-54.27349
2021-03-21 19:24:01+00:00,251.0,8.59,250.0,9.39,13.84,47.59359,-54.27349
2021-03-21 19:34:01+00:00,242.0,7.94,243.0,8.7,13.84,47.59359,-54.27349
2021-03-21 19:44:01+00:00,244.0,9.05,244.0,10.11,13.84,47.59359,-54.27349
2021-03-21 19:54:01+00:00,247.0,8.82,251.0,10.2,13.84,47.59359,-54.27349
2021-03-21 20:04:01+00:00,241.0,8.65,242.0,9.48,13.84,47.59359,-54.27349
2021-03-21 20:14:01+00:00,242.0,7.3,241.0,8.15,13.6,47.59359,-54.27349
2021-03-21 20:24:01+00:00,229.0,5.66,219.0,7.05,13.6,47.59359,-54.27349
2021-03-21 20:34:01+00:00,226.0,6.04,231.0,6.79,13.6,47.59359,-54.27349
2021-03-21 20:44:01+00:00,233.0,6.23,235.0,7.45,13.6,47.59359,-54.27349
2021-03-21 20:54:01+00:00,231.0,6.12,233.0,6.99,13.6,47.59359,-54.27349
2021-03-21 21:04:01+00:00,241.0,8.03,240.0,8.9,13.6,47.59359,-54.27349
2021-03-21 21:14:01+00:00,232.0,7.33,234.0,8.33,13.44,47.59359,-54.27349
2021-03-21 21:24:01+00:00,227.0,7.04,229.0,8.12,13.44,47.59359,-54.27349
2021-03-21 21:34:01+00:00,235.0,7.57,239.0,9.1,13.44,47.59359,-54.27349
2021-03-21 21:44:01+00:00,232.0,7.34,231.0,8.36,13.44,47.59359,-54.27349
2021-03-21 21:54:01+00:00,244.0,8.08,244.0,8.77,13.44,47.59359,-54.27349
2021-03-21 22:04:01+00:00,217.0,5.81,224.0,6.66,13.44,47.59359,-54.27349
2021-03-21 22:14:01+00:00,212.0,7.79,211.0,8.56,12.89,47.59359,-54.27349
2021-03-21 22:24:01+00:00,216.0,6.62,217.0,7.39,12.89,47.59359,-54.27349
2021-03-21 22:34:01+00:00,223.0,6.3,221.0,6.82,12.89,47.59359,-54.27349
2021-03-21 22:44:01+00:00,220.0,7.28,217.0,8.17,12.89,47.59359,-54.27349
2021-03-21 22:54:01+00:00,220.0,6.84,218.0,7.55,12.89,47.59359,-54.27349
2021-03-21 23:04:01+00:00,224.0,7.55,220.0,9.24,12.89,47.59359,-54.27349
2021-03-21 23:14:01+00:00,220.0,6.57,221.0,7.57,12.57,47.59359,-54.27349
2021-03-21 23:24:01+00:00,223.0,6.91,222.0,7.76,12.57,47.59359,-54.27349
2021-03-21 23:34:01+00:00,236.0,6.65,236.0,8.25,12.57,47.59359,-54.27349
2021-03-21 23:44:01+00:00,233.0,7.81,236.0,9.16,12.57,47.59359,-54.27349
2021-03-21 23:54:01+00:00,228.0,8.15,227.0,10.09,12.57,47.59359,-54.27349
